This is the latest recevied weather packets stored in our database for station/object KD4MBW. If no packets are shown the sender has not sent any weather packets the latest 10 day(s).
| Time | Temp. | Humidity | Pressure | Rain* | Wind** | Luminosity | Snow |
|---|---|---|---|---|---|---|---|
| 1777891908 | 11.11° C | 87% | 1018.4 hPa | 0 mm | - | 2 W/m² | - |
| 1777891605 | 11.11° C | 85% | 1018.2 hPa | 0 mm | - | 1 W/m² | - |
| 1777891301 | 11.11° C | 85% | 1018.2 hPa | 0 mm | - | 0 W/m² | - |
| 1777890996 | 11.11° C | 87% | 1018.3 hPa | 0 mm | - | 0 W/m² | - |
| 1777890690 | 11.11° C | 86% | 1018.5 hPa | 0 mm | - | 0 W/m² | - |
| 1777890387 | 10.56° C | 88% | 1018.2 hPa | 0 mm | - | 0 W/m² | - |
| 1777890082 | 10.56° C | 91% | 1018.1 hPa | 0 mm | - | 0 W/m² | - |
| 1777889780 | 10.56° C | 91% | 1018.2 hPa | 0 mm | - | 0 W/m² | - |
| 1777889478 | 11.11° C | 90% | 1018.1 hPa | 0 mm | - | 0 W/m² | - |
| 1777889175 | 11.11° C | 89% | 1018.4 hPa | 0 mm | - | 0 W/m² | - |
| 1777888874 | 11.11° C | 90% | 1018.2 hPa | 0 mm | - | 0 W/m² | - |
| 1777888570 | 10.56° C | 92% | 1018.3 hPa | 0 mm | - | 0 W/m² | - |
| 1777888265 | 11.11° C | 92% | 1018.4 hPa | 0 mm | - | 0 W/m² | - |
| 1777887963 | 11.11° C | 92% | 1018.3 hPa | 0 mm | - | 0 W/m² | - |
| 1777887659 | 11.11° C | 91% | 1018.2 hPa | 0 mm | - | 0 W/m² | - |
| 1777887355 | 11.67° C | 90% | 1018.2 hPa | 0 mm | - | 0 W/m² | - |
| 1777887051 | 11.67° C | 88% | 1018.3 hPa | 0 mm | - | 0 W/m² | - |
| 1777886747 | 11.11° C | 90% | 1018.1 hPa | 0 mm | - | 0 W/m² | - |
| 1777886444 | 11.67° C | 92% | 1018.2 hPa | 0 mm | - | 0 W/m² | - |
| 1777886142 | 11.11° C | 93% | 1018.2 hPa | 0 mm | - | 0 W/m² | - |
| 1777885840 | 11.11° C | 94% | 1018 hPa | 0 mm | - | 0 W/m² | - |
| 1777885538 | 11.11° C | 95% | 1018.4 hPa | 0 mm | - | 0 W/m² | - |
| 1777885236 | 11.11° C | 96% | 1018.3 hPa | 0 mm | - | 0 W/m² | - |
| 1777884934 | 11.67° C | 95% | 1018 hPa | 0 mm | - | 0 W/m² | - |
| 1777884629 | 11.67° C | 94% | 1018.2 hPa | 0 mm | - | 0 W/m² | - |
* Rain latest hour (hover to see other rain measurements)
** Current wind speed in m/s (hover to see current wind gust speed)